Wright-Patt AFB, OH

12:06 PM EDT on April 23, 2017 (GMT -0400)
Wright-Patterson Air Force Base

Weather History for KFFO - November, 2013

Change the Weather History Date:

Monday, November 18, 2013

  Actual Average Record
Temperature  
Mean Temperature 44 °F -  
Max Temperature 50 °F 49 °F 76 °F (2016)
Min Temperature 35 °F 32 °F 10 °F (2014)
Degree Days  
Heating Degree Days 22    
Moisture  
Dew Point 33 °F    
Average Humidity 65    
Maximum Humidity 83    
Minimum Humidity 46    
Precipitation  
Precipitation 0.00 in - - ()
Sea Level Pressure  
Sea Level Pressure 29.99 in    
Wind  
Wind Speed 14 mph (West)    
Max Wind Speed 22 mph    
Max Gust Speed 30 mph    
Visibility 10 miles    
Events      
Averages and records for this station are not official NWS values.
T = Trace of Precipitation, MM = Missing Value Source: NWS Daily Summary

Daily Weather History Graph

Daily Weather History Graph

Search for Another Location

Airport or City:

Trip Planner

Search our weather history database for the weather conditions in past years. The results will help you decide how hot, cold, wet, or windy it might be!

Date:

Astronomy

Nov. 18, 2013 Rise Set
Actual Time 7:24 AM EST 5:17 PM EST
Civil Twilight 6:55 AM EST 5:47 PM EST
Nautical Twilight 6:22 AM EST 6:19 PM EST
Astronomical Twilight 5:50 AM EST 6:51 PM EST
Moon 6:19 PM EST (11/18) 8:12 AM EST (11/18)
Length of Visible Light 10h 51m
Length of Day
9h 53m
Full, 99% of the Moon is Illuminated
Nov 18
Full
Nov 25
Last Quarter
Dec 2
New
Dec 9
First Quarter
Dec 17
Full

Hourly Weather History & Observations

Time (EST) Temp. Windchill Dew Point Humidity Pressure Visibility Wind Dir Wind Speed Gust Speed Precip Events Conditions
12:58 AM 47.7 °F - 38.8 °F 71% 29.79 in 10.0 mi WSW 13.8 mph - N/A   Clear
1:58 AM 47.5 °F - 39.2 °F 73% 29.80 in 10.0 mi West 16.1 mph 21.9 mph N/A   Clear
2:58 AM 45.9 °F 38.8 °F 38.5 °F 75% 29.83 in 10.0 mi West 17.3 mph 28.8 mph N/A   Clear
3:58 AM 44.8 °F 38.7 °F 37.0 °F 74% 29.85 in 10.0 mi West 12.7 mph - N/A   Clear
4:58 AM 43.3 °F 37.2 °F 36.3 °F 76% 29.88 in 10.0 mi WSW 11.5 mph - N/A   Clear
5:58 AM 42.3 °F 35.1 °F 34.9 °F 75% 29.90 in 10.0 mi WSW 13.8 mph - N/A   Clear
6:58 AM 41.5 °F 36.4 °F 34.7 °F 77% 29.91 in 10.0 mi SW 8.1 mph - N/A   Clear
7:58 AM 40.3 °F 33.4 °F 35.4 °F 83% 29.92 in 10.0 mi SW 11.5 mph - N/A   Clear
8:58 AM 43.7 °F 35.7 °F 36.7 °F 76% 29.93 in 10.0 mi WSW 18.4 mph - N/A   Clear
9:58 AM 45.9 °F 38.3 °F 36.0 °F 68% 29.94 in 10.0 mi West 19.6 mph 27.6 mph N/A   Clear
10:58 AM 47.5 °F - 32.9 °F 57% 29.96 in 10.0 mi WSW 17.3 mph 27.6 mph N/A   Partly Cloudy
11:58 AM 49.1 °F - 30.6 °F 49% 29.97 in 10.0 mi West 19.6 mph 29.9 mph N/A   Clear
12:58 PM 50.2 °F - 30.9 °F 48% 29.97 in 10.0 mi WSW 16.1 mph 26.5 mph N/A   Clear
1:58 PM 49.6 °F - 29.5 °F 46% 29.98 in 10.0 mi West 21.9 mph 28.8 mph N/A   Scattered Clouds
2:58 PM 48.7 °F - 30.2 °F 49% 30.00 in 10.0 mi West 19.6 mph 24.2 mph N/A   Clear
3:58 PM 48.4 °F - 29.8 °F 49% 30.03 in 10.0 mi West 19.6 mph 26.5 mph N/A   Partly Cloudy
4:58 PM 46.9 °F - 28.4 °F 49% 30.06 in 10.0 mi WNW 15.0 mph 23.0 mph N/A   Partly Cloudy
5:58 PM 45.0 °F 40.1 °F 28.4 °F 52% 30.09 in 10.0 mi West 9.2 mph 18.4 mph N/A   Scattered Clouds
6:58 PM 42.6 °F 37.2 °F 28.6 °F 58% 30.12 in 10.0 mi WNW 9.2 mph - N/A   Partly Cloudy
7:58 PM 40.5 °F 35.1 °F 28.8 °F 63% 30.14 in 10.0 mi West 8.1 mph - N/A   Clear
8:58 PM 39.6 °F 33.5 °F 29.5 °F 67% 30.16 in 10.0 mi West 9.2 mph - N/A   Clear
9:58 PM 38.1 °F 33.7 °F 30.0 °F 73% 30.18 in 10.0 mi NW 5.8 mph - N/A   Mostly Cloudy
10:58 PM 37.8 °F 35.3 °F 29.7 °F 73% 30.19 in 10.0 mi NW 3.5 mph - N/A   Overcast
11:58 PM 35.8 °F 30.9 °F 28.2 °F 74% 30.21 in 10.0 mi WNW 5.8 mph - N/A   Clear